Starlink 3930

operational
NORAD ID: 52568 Int'l Des: 2022-051 Owner: SPXS Country: US Constellation: starlink
LEOCIRCULAR

About Starlink 3930

Description loading...

Live Position

Loading 3D Globe...

Upcoming Passes

Altitude History

Altitude vs Time

uPlot chart will show altitude changes over time

Two-Line Element Set

1 52568U 22051AM 25350.62756064 .00000683 00000-0 61023-4 0 9990
2 52568 53.2173 132.0008 0001409 87.8509 272.2645 15.08835534199047
Epoch: Dec 16, 2025 • Age: 25 hours

Current Status

Altitude 539.7 km
Velocity 7.59 km/s
Sub-Earth Point 10.08°N, 21.41°W
Launch Date May 13, 2022
Age 3.5 years
Type internet

Technical Details

Classification Payload
Mass 297.00 kg
Dry Mass 275.00 kg
Total Mass 297.00 kg
Length 0.20 m
Diameter 2.80 m
Span 9.00 m
Shape Box + pan
Manufacturer SPXS
Bus Type Starlink
Phase Status In Orbit
Owner/State SPXS/US

Large Constellations

Loading constellations...